[Iaude] MPEC G129: 2024 FT [a=1.98,e=0.41,i=11.6,H=21.16]

mpec at cfa.harvard.edu mpec at cfa.harvard.edu
Wed Apr 10 06:40:11 EDT 2024


M.P.E.C. 2024-G129                               Issued 2024 April 10, 10:38 UT

     The Minor Planet Electronic Circulars contain information on unusual
         minor planets, routine data on comets and natural satellites,
         and occasional editorial announcements.  They are published
    on behalf of Division F of the International Astronomical Union by the
          Minor Planet Center, Smithsonian Astrophysical Observatory,
                          Cambridge, MA 02138, U.S.A.
			  
             Prepared using the Tamkin Foundation Computer Network

                              MPC at CFA.HARVARD.EDU
            URL https://www.minorplanetcenter.net/    ISSN 1523-6714

                                    2024 FT                                     


                           Revision to MPEC 2024-F33                            

Additional Observations:
     K24F00T  C2010 03 16.17729 11 55 59.45 +05 45 06.5          20.2 VoEG129691
     K24F00T  C2010 03 16.19494 11 55 57.77 +05 44 46.1          20.3 VoEG129691
     K24F00T  C2010 03 16.21258 11 55 56.06 +05 44 25.4          20.1 VoEG129691
     K24F00T  C2010 03 20.19008 11 49 40.97 +04 20 59.9          20.2 VoEG129691
     K24F00T  C2010 03 20.20776 11 49 39.17 +04 20 36.4          20.0 VoEG129691
     K24F00T  C2010 03 20.22544 11 49 37.26 +04 20 12.6          20.1 VoEG129691

Observer details:
691 Steward Observatory, Kitt Peak-Spacewatch.  Observers T. H. Bressi, J. V.
    Scotti.  0.9-m f/3 reflector + CCD.

First and last observations above in comparison with prediction:
Residuals in seconds of arc (or zero decimals in degrees), reference and Delta-T
100316 691   38+   21+    100320 691   38+   21+    MPO811615   -0.07 days

Orbital elements:
2024 FT                                                  Earth MOID = 0.2154 AU
Epoch 2024 Mar. 31.0 TT = JDT 2460400.5                 Veres                   
M 345.13732              (2000.0)            P               Q                  
n   0.35323738     Peri.  233.19689     -0.57054828     +0.82123253             
a   1.9819451      Node     2.05537     -0.67503201     -0.46394923             
e   0.4126132      Incl.   11.57466     -0.46776751     -0.33215694             
P   2.79           H   21.16          G   0.15           U   2                  
Residuals in seconds of arc
100316 691  0.2+  0.1-    240318 807  0.1-  0.1+    240331 807  0.2-  0.0
100316 691  0.0   0.0     240318 807  0.2+  0.1+    240331 807  0.2-  0.1+
100316 691  0.5-  0.1-    240318 807  0.3+  0.1-    240401 F51  0.1-  0.0
100320 691  0.7-  0.1-    240318 X09  0.6+  0.0     240401 F51  0.0   0.0
100320 691  0.5+  0.0     240318 X09  0.9+  0.7-    240401 F51  0.0   0.0
100320 691  0.1+  0.1-    240318 F51  0.0   0.1+    240409 L87  0.4-  1.5-
240317 F51  0.1+  0.1+    240318 F51  0.0   0.1+    240409 L87  0.1+  0.0
240317 F51  0.0   0.1+    240319 T12  0.0   0.0     240409 L87  0.1-  0.4-
240317 F51  0.0   0.1+    240319 T12  0.1+  0.1+
240317 F51  0.1+  0.2+    240331 807  0.1-  0.0

Ephemeris:
2024 FT                  a,e,i = 1.98, 0.41, 12                  q = 1.1642
Date    TT    R. A. (2000) Decl.     Delta      r    Elong.  Phase     V
2024 03 11    13 59 40.3 -12 15 12   0.3981  1.3181   138.5    30.0    21.1
...
2024 03 26    14 18 48.5 -23 56 43   0.3049  1.2570   144.0    27.8    20.3
...
2024 04 03    14 28 51.4 -32 06 06   0.2698  1.2295   144.5    28.2    20.0
...
2024 04 09    14 36 39.1 -38 57 44   0.2507  1.2117   143.2    29.7    19.9
2024 04 10    14 38 00.0 -40 08 54   0.2482  1.2089   142.8    30.1    19.8
2024 04 11    14 39 22.2 -41 20 35   0.2458  1.2063   142.4    30.4    19.8
...
2024 04 17    14 48 12.2 -48 35 07   0.2349  1.1919   139.3    33.3    19.8
...
2024 04 25    15 02 45.3 -57 54 44   0.2291  1.1772   134.2    37.8    19.8
...
2024 05 10    15 48 47.4 -71 42 04   0.2379  1.1644   125.6    44.9    20.1

A. U. Tomatic                (C) Copyright 2024 MPC           M.P.E.C. 2024-G129





More information about the Iaude mailing list